"Pseudo-MPEC" for P11JSYy

Created 2023 Sep 24 14:22:19 UT using Find_Orb

Click here for an explanation of pseudo-MPECs

 
 Astrometry: 
     P11JSYy* C2023 09 18e87cSWAQXGmJmAstrometry0_G\G*0en6uZ%a7#)ni]K0h^W[.%EF51
     P11JSYy  C2023 09 18hlJew[+EK'_gscn1]_7H'uYb]^b%WT*B+e'Qj-WLmxE0FGu*a2RhF51
     P11JSYy  C2023 09 18ae+x$m$[G.#SM_^=l;C9mh#:6yxQe*?MoJ%sq)T?k2Lq06=%YWrHF51
     P11JSYy KC2023 09 18Z2830iynbd3+]^i8#Z$)Su9i8Ik$redacted;^WqB_J6HP568s%*F51
     P11JSYy KC2023 09 19Q_.Z8)t[ul^E7)oclick37rKM@U(/k@)pJZ0Xhere:ah865P[LldH21
     P11JSYy KC2023 09 19A%?2xD:ryB(Ebfor1o2EYD_explanation\_(tu=JWipuev:wN^7H21

Station data:
(F51) Pan-STARRS 1, Haleakala  (N20.707234 W156.255910)  US/Hawaii.
   Observers J. Bulger, T. Lowe, A. Schultz, M. Willman. Measurers K.
   Chambers, S. Chastel, T. de Boer, L. Denneau, J. Fairlamb, H. Flewelling,
   M. Huber, C.-C. Lin, E. Magnier, Y. Ramanjooloo, R. Wainscoat, R. Weryk.
   1.8-m Ritchey-Chrétien + CCD.
(H21) Astronomical Research Observatory, Westfield  (N39.483054 W87.968270)
   US/Illinois.  Observer R. Holmes. Measurers S. Foglia, L. Buzzi, T.
   Linder, R. Holmes. 0.76-m f/3.0 astrograph + CCD0.81-m f/4.0 astrograph +
   CCD0.61-m f/4.5 astrograph + CCD0.40-m f/5.32 astrograph + CCD.

Orbital elements:  P11JSYy
   Perihelion 2023 Sep 14.26418 +/- 11 TT =  6:20:25 (JD 2460201.76418)
Epoch 2023 Sep 19.0 TT = JDT 2460206.5   Earth MOID: 0.3472   Ma: 0.0289
M   1.20537678 +/- 2.8              (J2000 ecliptic)             AutoNEOCP
n   0.25452351 +/- 0.00947          Peri.  174.28978 +/- 8
a   2.46594908 +/- 0.0612           Node   176.76093 +/- 0.025
e   0.4513766 +/- 0.0101            Incl.    8.01272 +/- 0.15
P   3.87                   H 23.85  G  0.15   U  9.6
q 1.35287734 +/- 0.0088    Q 3.57902082 +/- 0.114
From 6 observations 2023 Sept. 18-19 (20.6 hr); mean residual 0".13
Residuals in arcseconds: 
230918 F51  .02-  .10+    230918 F51  .06-  .19-    230919 H21  .25-  .06+    
230918 F51  .08+  .08+    230918 F51  .00   .02+    230919 H21  .25+  .05-    

Ephemerides (geocentric):
Date (UTC) HH   RA             Dec           delta  r     elong  mag " sig PA
---- --------  ------------   ------------  ------ ------ -----  --- --------
2023 09 24 14  23 35 05.673   -03 52 55.59  .35626 1.3568 171.7 22.7 72.3 146
2023 09 24 15  23 35 08.192   -03 53 43.60  .35633 1.3568 171.7 22.7 73.3 145
2023 09 24 16  23 35 10.712   -03 54 31.58  .35640 1.3568 171.7 22.8 74.3 145
2023 09 24 17  23 35 13.233   -03 55 19.53  .35647 1.3568 171.6 22.8 75.4 145
2023 09 24 18  23 35 15.754   -03 56 07.44  .35654 1.3569 171.6 22.8 76.4 145
2023 09 24 19  23 35 18.276   -03 56 55.32  .35661 1.3569 171.5 22.8 77.5 145
2023 09 24 20  23 35 20.798   -03 57 43.16  .35668 1.3569 171.5 22.8 78.6 145
2023 09 24 21  23 35 23.321   -03 58 30.97  .35675 1.3570 171.5 22.8 79.6 145
2023 09 24 22  23 35 25.845   -03 59 18.75  .35682 1.3570 171.4 22.8 80.7 145
2023 09 24 23  23 35 28.370   -04 00 06.50  .35689 1.3570 171.4 22.8 81.8 145
2023 09 25 00  23 35 30.895   -04 00 54.21  .35696 1.3571 171.3 22.8 82.9 145
2023 09 25 01  23 35 33.421   -04 01 41.88  .35703 1.3571 171.3 22.8 84.0 145
2023 09 25 02  23 35 35.948   -04 02 29.53  .35710 1.3571 171.3 22.8 85.1 145
2023 09 25 03  23 35 38.475   -04 03 17.13  .35717 1.3572 171.2 22.8 86.2 145
2023 09 25 04  23 35 41.003   -04 04 04.71  .35725 1.3572 171.2 22.8 87.3 145
2023 09 25 05  23 35 43.531   -04 04 52.25  .35732 1.3572 171.2 22.8 88.4 145
2023 09 25 06  23 35 46.060   -04 05 39.75  .35739 1.3573 171.1 22.8 89.6 145
2023 09 25 07  23 35 48.590   -04 06 27.22  .35747 1.3573 171.1 22.8 90.7 145
2023 09 25 08  23 35 51.121   -04 07 14.65  .35754 1.3573 171.0 22.8 91.8 145
2023 09 25 09  23 35 53.652   -04 08 02.05  .35761 1.3574 171.0 22.8 93.0 145
2023 09 25 10  23 35 56.184   -04 08 49.41  .35769 1.3574 171.0 22.8 94.2 145
2023 09 25 11  23 35 58.716   -04 09 36.74  .35776 1.3574 170.9 22.8 95.3 145
2023 09 25 12  23 36 01.249   -04 10 24.03  .35784 1.3575 170.9 22.8 96.5 145
2023 09 25 13  23 36 03.783   -04 11 11.29  .35791 1.3575 170.8 22.8 97.7 145
2023 09 25 14  23 36 06.318   -04 11 58.51  .35799 1.3575 170.8 22.8 98.9 145
2023 09 25 15  23 36 08.853   -04 12 45.69  .35806 1.3576 170.8 22.8  100 145
2023 09 25 16  23 36 11.389   -04 13 32.84  .35814 1.3576 170.7 22.8  101 145
2023 09 25 17  23 36 13.926   -04 14 19.95  .35821 1.3576 170.7 22.8  102 145
2023 09 25 18  23 36 16.463   -04 15 07.03  .35829 1.3577 170.7 22.8  104 145
2023 09 25 19  23 36 19.001   -04 15 54.07  .35836 1.3577 170.6 22.8  105 145
2023 09 25 20  23 36 21.540   -04 16 41.07  .35844 1.3577 170.6 22.8  106 145
2023 09 25 21  23 36 24.079   -04 17 28.03  .35852 1.3578 170.5 22.8  107 145
2023 09 25 22  23 36 26.619   -04 18 14.96  .35859 1.3578 170.5 22.8  109 145
2023 09 25 23  23 36 29.160   -04 19 01.85  .35867 1.3579 170.5 22.8  110 145
2023 09 26 00  23 36 31.701   -04 19 48.71  .35875 1.3579 170.4 22.8  111 145
2023 09 26 01  23 36 34.243   -04 20 35.52  .35883 1.3579 170.4 22.8  112 145
2023 09 26 02  23 36 36.786   -04 21 22.30  .35890 1.3580 170.3 22.8  114 145
2023 09 26 03  23 36 39.329   -04 22 09.05  .35898 1.3580 170.3 22.8  115 145
2023 09 26 04  23 36 41.873   -04 22 55.75  .35906 1.3580 170.3 22.8  116 145
2023 09 26 05  23 36 44.418   -04 23 42.42  .35914 1.3581 170.2 22.8  117 145
2023 09 26 06  23 36 46.964   -04 24 29.05  .35922 1.3581 170.2 22.8  119 145
2023 09 26 07  23 36 49.510   -04 25 15.64  .35930 1.3581 170.2 22.8  120 145
2023 09 26 08  23 36 52.057   -04 26 02.19  .35938 1.3582 170.1 22.8  121 145
2023 09 26 09  23 36 54.605   -04 26 48.70  .35946 1.3582 170.1 22.8  123 145
2023 09 26 10  23 36 57.153   -04 27 35.18  .35954 1.3582 170.0 22.8  124 145
2023 09 26 11  23 36 59.702   -04 28 21.61  .35962 1.3583 170.0 22.8  125 145
2023 09 26 12  23 37 02.252   -04 29 08.01  .35970 1.3583 170.0 22.8  127 145
2023 09 26 13  23 37 04.802   -04 29 54.37  .35978 1.3584 169.9 22.8  128 145